This demonstration page uses our WeatherBlox Daily Observations layout. Learn more.

Hourly Observations for April 23, 2019

Temp ( °F °C ) Dew Point ( °F °C ) Humidity (%) Winds ( mph kmh ) Pressure ( in mb ) Visibility ( mi km ) Precip ( " mm )
12:15 am 00:15 Clear 52 11 50 10 94 94 W 6 9 30.09 1019 10 16.09344 0 0
12:35 am 00:35 Clear 57 14 50 10 77 77 W 3 6 30.09 1019 10 16.09344 0 0
12:55 am 00:55 Clear 52 11 50 10 94 94 W 6 9 30.09 1019 10 16.09344 0 0
1:15 am 01:15 Clear 55 13 48 9 77 77 W 3 6 30.09 1019 10 16.09344 0 0
1:35 am 01:35 Clear 55 13 50 10 82 82 WSW 5 7 30.09 1019 10 16.09344 0 0
1:55 am 01:55 Clear 55 13 50 10 82 82 Calm 30.09 1019 10 16.09344 0 0
2:15 am 02:15 Clear 57 14 50 10 77 77 SW 3 6 30.09 1019 10 16.09344 0 0
2:35 am 02:35 Clear 55 13 48 9 77 77 Calm 30.09 1019 10 16.09344 0 0
2:55 am 02:55 Clear 54 12 48 9 82 82 SW 3 6 30.09 1019 10 16.09344 0 0
3:15 am 03:15 Clear 52 11 48 9 88 88 Calm 30.09 1019 10 16.09344 0 0
3:35 am 03:35 Clear 52 11 50 10 94 94 Calm 30.06 1018 10 16.09344 0 0
3:55 am 03:55 Clear 52 11 48 9 88 88 Calm 30.06 1018 10 16.09344 0 0
4:15 am 04:15 Clear 50 10 48 9 94 94 Calm 30.09 1019 10 16.09344 0 0
4:35 am 04:35 Clear 52 11 48 9 88 88 NNW 3 6 30.06 1018 10 16.09344 0 0
4:55 am 04:55 Clear 50 10 48 9 94 94 N 3 6 30.09 1019 10 16.09344 0 0
5:15 am 05:15 Clear 48 9 46 8 94 94 NW 3 6 30.09 1019 10 16.09344 0 0
5:35 am 05:35 Clear 46 8 46 8 100 100 WSW 3 6 30.12 1020 10 16.09344 0 0
5:55 am 05:55 Clear 50 10 46 8 88 88 W 6 9 30.12 1020 10 16.09344 0 0
6:35 am 06:35 Sunny 50 10 48 9 94 94 W 5 7 30.12 1020 10 16.09344 0 0
6:55 am 06:55 Sunny 50 10 48 9 94 94 W 5 7 30.12 1020 10 16.09344 0 0
7:15 am 07:15 Sunny 52 11 48 9 88 88 W 3 6 30.09 1019 10 16.09344 0 0
7:35 am 07:35 Sunny 54 12 50 10 88 88 Calm 30.09 1019 10 16.09344 0 0
7:55 am 07:55 Sunny 59 15 50 10 72 72 Calm 30.09 1019 10 16.09344 0 0
8:15 am 08:15 Sunny 61 16 50 10 68 68 Calm 30.09 1019 10 16.09344 0 0
8:35 am 08:35 Sunny 63 17 50 10 64 64 Calm 30.09 1019 10 16.09344 0 0
8:55 am 08:55 Sunny 64 18 52 11 64 64 Calm 30.06 1018 10 16.09344 0 0
9:15 am 09:15 Sunny 66 19 52 11 60 60 Calm 30.06 1018 10 16.09344 0 0
9:35 am 09:35 Sunny 68 20 50 10 53 53 Calm 30.06 1018 10 16.09344 0 0
9:55 am 09:55 Sunny 70 21 52 11 53 53 Calm 30.06 1018 10 16.09344 0 0
10:15 am 10:15 Sunny 72 22 50 10 47 47 Calm 30.06 1018 10 16.09344 0 0
10:35 am 10:35 Sunny 72 22 46 8 41 41 SSE 3 6 30.06 1018 10 16.09344 0 0
10:55 am 10:55 Sunny 73 23 48 9 41 41 Calm 30.03 1017 10 16.09344 0 0
11:15 am 11:15 Sunny 73 23 48 9 41 41 S 7 11 30.03 1017 10 16.09344 0 0
11:35 am 11:35 Sunny 77 25 50 10 39 39 W 5 7 30.03 1017 10 16.09344 0 0
11:55 am 11:55 Sunny 77 25 50 10 39 39 WSW 5 7 30 1016 10 16.09344 0 0
12:15 pm 12:15 Sunny 77 25 50 10 39 39 SSE 6 9 30 1016 10 16.09344 0 0
12:35 pm 12:35 Sunny 79 26 50 10 37 37 SSE 6 9 29.97 1015 10 16.09344 0 0
12:55 pm 12:55 Sunny 79 26 50 10 37 37 S 5 7 29.97 1015 10 16.09344 0 0
1:15 pm 13:15 Sunny 81 27 50 10 34 34 SSE 6 9 29.94 1014 10 16.09344 0 0
1:35 pm 13:35 Sunny 81 27 52 11 37 37 SSW 12 19 29.94 1014 10 16.09344 0 0
1:55 pm 13:55 Sunny 81 27 50 10 34 34 S 10 17 29.94 1014 10 16.09344 0 0
2:15 pm 14:15 Sunny 81 27 50 10 34 34 S 12 19 29.94 1014 10 16.09344 0 0
2:35 pm 14:35 Sunny 81 27 52 11 37 37 S 12 19 29.91 1013 10 16.09344 0 0
2:55 pm 14:55 Sunny 82 28 50 10 32 32 S 13 20 29.91 1013 10 16.09344 0 0
3:15 pm 15:15 Sunny 82 28 52 11 35 35 SW 8 13 29.91 1013 10 16.09344 0 0
3:35 pm 15:35 Sunny 82 28 52 11 35 35 S 9 15 29.88 1012 10 16.09344 0 0
3:55 pm 15:55 Sunny 84 29 52 11 33 33 S 9 15 29.88 1012 10 16.09344 0 0
4:15 pm 16:15 Sunny 84 29 52 11 33 33 S 12 19 29.83 1010 10 16.09344 0 0
4:35 pm 16:35 Sunny 84 29 52 11 33 33 SSW 14 22 29.83 1010 10 16.09344 0 0
4:55 pm 16:55 Sunny 84 29 52 11 33 33 S 15 24 29.8 1009 10 16.09344 0 0
5:15 pm 17:15 Sunny 84 29 52 11 33 33 S 13 20 29.8 1009 10 16.09344 0 0
5:35 pm 17:35 Sunny 84 29 54 12 35 35 SSW 9 15 29.8 1009 10 16.09344 0 0
5:55 pm 17:55 Sunny 82 28 54 12 37 37 S 10 17 29.83 1010 10 16.09344 0 0
6:35 pm 18:35 Sunny 82 28 52 11 35 35 S 17 28 29.83 1010 10 16.09344 0 0
6:55 pm 18:55 Sunny 82 28 54 12 37 37 SSW 12 19 29.8 1009 10 16.09344 0 0
7:15 pm 19:15 Sunny 81 27 54 12 39 39 SSW 6 9 29.83 1010 10 16.09344 0 0
7:35 pm 19:35 Partly Cloudy 81 27 54 12 39 39 S 7 11 29.83 1010 10 16.09344 0 0
7:55 pm 19:55 Mostly Cloudy 79 26 54 12 42 42 S 7 11 29.83 1010 10 16.09344 0 0
8:15 pm 20:15 Partly Cloudy 77 25 54 12 44 44 S 6 9 29.83 1010 10 16.09344 0 0
8:35 pm 20:35 Clear 77 25 54 12 44 44 SSW 6 9 29.83 1010 10 16.09344 0 0
8:55 pm 20:55 Clear 77 25 54 12 44 44 SSW 3 6 29.83 1010 10 16.09344 0 0
9:15 pm 21:15 Clear 73 23 54 12 50 50 WSW 5 7 29.83 1010 10 16.09344 0 0
9:35 pm 21:35 Partly Cloudy 73 23 54 12 50 50 SSW 7 11 29.8 1009 10 16.09344 0 0
9:55 pm 21:55 Partly Cloudy 73 23 54 12 50 50 SW 6 9 29.8 1009 10 16.09344 0 0
10:15 pm 22:15 Partly Cloudy 72 22 55 13 57 57 W 3 6 29.8 1009 10 16.09344 0 0
10:35 pm 22:35 Clear 70 21 55 13 60 60 W 7 11 29.8 1009 10 16.09344 0 0
10:55 pm 22:55 Partly Cloudy 68 20 55 13 64 64 W 6 9 29.8 1009 10 16.09344 0 0
11:15 pm 23:15 Partly Cloudy 70 21 55 13 60 60 N 7 11 29.8 1009 10 16.09344 0 0
11:35 pm 23:35 Partly Cloudy 70 21 55 13 60 60 NNW 3 6 29.8 1009 10 16.09344 0 0
11:55 pm 23:55 Mostly Cloudy 70 21 55 13 60 60 NNW 6 9 29.8 1009 10 16.09344 0 0

Powered by AerisWeather